{"data":{"norad_id":63516,"epoch":"2026-05-24T21:00:13.804992Z","epoch_age_seconds":82874,"freshness":"FRESH","line1":"1 63516U 25071Z   26144.87515978  .00025903  00000+0  84302-3 0  9991","line2":"2 63516  53.1585 146.0516 0000879  77.2404 282.8695 15.31721096 64411","mean_motion":15.31721096,"eccentricity":8.79e-5,"inclination_deg":53.1585,"raan_deg":146.0516,"arg_perigee_deg":77.2404,"mean_anomaly_deg":282.8695,"bstar":0.00084302,"rev_number":6441,"period_min":94.011893141674,"perigee_km":470.0750991089,"apogee_km":471.27912062941,"semimajor_km":6848.8141098692,"source":"CELESTRAK","updated_at":"2026-05-25T13:38:20.038964Z"}}